Torna al catalogo

NOAA 16 DEB

AttivoPO
NORAD 42405·DEBRIS·🇺🇸 United States

Lanciato Sep 21, 2000 da Vandenberg Space Force Base

Loading…

Prossimi Passaggi (prossime 24 ore)

TLE

AggiornatoSource: Space-Track

Epoca: Sep 13, 2026, 12:22 UTC

1 42405U 00055SZ  26256.51532250  .00004836  00000-0  11274-2 0  9997
2 42405  99.0154 154.6019 0020849 210.6007 149.3973 14.55171113546673

Traccia NOAA 16 DEB in tempo reale con AllMySat

Download on the App Store